Tracking 29892 objects as of 21-Nov-2024
HD Live streaming from Space Station
objects crossing your sky now

FENGYUN 1C DEB

Track FENGYUN 1C DEB now!
10-day predictions


NORAD ID: 31971
Int'l Code: 1999-025CNY
Perigee: 612.2 km
Apogee: 642.2 km
Inclination: 102.2 °
Period: 97.1 minutes
Semi major axis: 6998 km
RCS: 0.0103 m2 (small)
Launch date: May 10, 1999
Source: People's Republic of China (PRC)
Launch site: Taiyaun Space Center, China (TSC)

Note: This is SATELLITE DEBRIS
Your satellite tracking list
Your tracking list is empty




NASA's NSSDC Master Catalog

Two Line Element Set (TLE):
1 31971U 99025CNY 24323.55971323  .00082660  00000-0  10033-1 0  9995
2 31971 102.2403  74.3286 0021410 263.6710 110.2901 14.82933519905797
Source of the keplerian elements: AFSPC